Home > Weather > Elbląg > Past weeks

Flag for Poland Past Weather in Elbląg, Poland — Yesterday and Last 2 Weeks

Now
73 °F

Scattered clouds.


Feels Like: 76 °F
Forecast: 63 / 78 °F
Wind: 5 mph from Northeast

Location: Hel

Current Time: Jul 27, 2016 at 5:33:58 PM

Latest Report: Jul 27, 2016 at 4:00 PM


Visibility: 16 mi

Pressure: 30.04 "Hg

Humidity: 66%

Dew Point: 61 °F

Location of ElblągLocation

Past Weather in Elbląg — Graph

°F

Elbląg Temperature Yesterday

Maximum temperature yesterday: 77 °F (at 1:00 PM)
Minimum temperature yesterday: 61 °F (at 5:00 AM)
Average temperature yesterday: 69 °F

High & Low Weather Summary for the Past Weeks

 TemperatureHumidityPressure
High77 °F (Jul 26, 1:00 PM)99% (Jul 21, 7:00 AM)30.18 "Hg (Jul 21, 7:00 AM)
Low56 °F (Jul 16, 11:00 PM)41% (Jul 21, 2:00 PM)29.54 "Hg (Jul 15, 12:00 AM)
Average65 °F83%30.02 "Hg
* Reported Jul 12 4:00 PM — Jul 27 4:00 PM, Elbląg, Weather by CustomWeather, © 2016

Note: Actual official high and low records may vary slightly from our data, if they occured in-between our weather recording intervals... More about our weather records

Advertising

Elbląg Weather History for the Previous 24 Hours

Scroll right to see more
 ConditionsComfort  
Time TempWeatherWind HumidityBarometerVisibility
4:00 PM
Wed, Jul 27
73 °FScattered clouds.5 mph66%30.04 "Hg16 mi
3:00 PM72 °FPassing clouds.3 mph69%30.06 "Hg16 mi
2:00 PM73 °FPassing clouds.5 mph65%30.07 "Hg19 mi
1:00 PM73 °FPassing clouds.3 mph63%30.09 "Hg19 mi
12:00 PM73 °FPassing clouds.1 mph57%30.10 "Hg19 mi
11:00 AM73 °FPassing clouds.2 mph67%30.10 "Hg19 mi
10:00 AM70 °FScattered clouds.2 mph78%30.11 "Hg12 mi
9:00 AM69 °FPartly sunny.2 mph83%30.11 "Hg12 mi
8:00 AM67 °FPartly sunny.2 mph89%30.11 "Hg12 mi
7:00 AM67 °FPartly sunny.2 mph91%30.10 "Hg12 mi
6:00 AM66 °FPartly sunny.3 mph91%30.10 "Hg12 mi
5:00 AM65 °FScattered clouds.3 mph91%30.10 "Hg12 mi
4:00 AM65 °FPassing clouds.3 mph89%30.09 "Hg12 mi
3:00 AM67 °FOvercast.3 mph87%30.09 "Hg12 mi
2:00 AM67 °FPassing clouds.3 mph89%30.10 "Hg12 mi
1:00 AM67 °FPassing clouds.3 mph89%30.10 "Hg12 mi
12:00 AM67 °FPassing clouds.3 mph95%30.10 "Hg9 mi
11:00 PM
Tue, Jul 26
67 °FPassing clouds.2 mph93%30.10 "Hg7 mi
10:00 PM67 °FPassing clouds.3 mph91%30.10 "Hg9 mi
9:00 PM69 °FPassing clouds.3 mph86%30.08 "Hg11 mi
8:00 PM70 °FPartly sunny.2 mph85%30.07 "Hg12 mi
7:00 PM70 °FPartly sunny.2 mph86%30.06 "Hg11 mi
6:00 PM70 °FPartly sunny.3 mph85%30.06 "Hg11 mi
5:00 PM71 °FScattered clouds.6 mph80%30.05 "Hg12 mi
Weather by CustomWeather, © 2016

See weather overviewHow to use our weather pages